Location: Unspecified
(0.0000°N, 0.0000°E)
Time: 13:36:15
(UTC+00:00)

YUBILEINY - Pass Details

Date: 15 December 2017
Orbit: 1478 x 1509 km, 82.5° (Epoch: 15 January)

Event Time Altitude Azimuth Distance (km) Brightness Sun altitude
Rises 01:05:19 0° 144° (SE) 4,620 ? -61.1°
Reaches altitude 10° 01:10:21 10° 120° (ESE) 3,643 ? -60.4°
Enters shadow 01:11:10 11° 114° (ESE) 3,544 ? -60.3°
